This demonstration page uses our WeatherBlox Daily Observations layout. Learn more.

Left ArrowRight Arrow

38.88101, -77.10428

Hourly Observations for June 21, 2021

Temp ( °F °C ) Dew Point ( °F °C ) Humidity (%) Winds ( mph kmh ) Pressure ( in mb ) Visibility ( mi km ) Precip ( " mm )
12:52 am 00:52 Mostly Cloudy 77 25 71 21.7 82 82 S 8 13 29.77 1008 10 16 N/A
1:52 am 01:52 Mostly Cloudy 76 24.4 70 21.1 82 82 S 9 15 29.76 1008 10 16 N/A
2:52 am 02:52 Mostly Cloudy 75 23.9 71 21.7 88 88 S 10 17 29.75 1008 10 16 N/A
3:06 am 03:06 Mostly Cloudy 75 23.9 70 21.1 84 84 SSW 10 17 29.75 1007 10 16 N/A
3:45 am 03:45 Cloudy 75 23.9 71 21.7 88 88 S 8 13 29.74 1007 10 16 N/A
3:52 am 03:52 Cloudy 75 23.9 71 21.7 88 88 S 9 15 29.74 1007 10 16 N/A
4:52 am 04:52 Cloudy 75 23.9 71 21.7 88 88 S 9 15 29.75 1007 10 16 N/A
5:05 am 05:05 Cloudy 75 23.9 71 21.7 88 88 S 8 13 29.75 1007 10 16 N/A
5:52 am 05:52 Cloudy 75 23.9 71 21.7 88 88 S 7 11 29.75 1008 10 16 N/A
6:52 am 06:52 Cloudy 76 24.4 71 21.7 85 85 SW 9 15 29.76 1008 10 16 N/A
7:41 am 07:41 Cloudy 77 25 71 21.7 82 82 WSW 7 11 29.76 1008 10 16 N/A
7:52 am 07:52 Cloudy 77 25 71 21.7 82 82 WSW 6 9 29.76 1008 10 16 N/A
8:52 am 08:52 Mostly Cloudy 79 26.1 72 22.2 79 79 S 7 11 29.75 1008 10 16 N/A
9:25 am 09:25 Mostly Cloudy 79 26.1 73 22.8 82 82 S 8 13 29.76 1008 10 16 N/A
9:52 am 09:52 Mostly Cloudy 79 26.1 72 22.2 79 79 S 9 15 29.76 1008 10 16 N/A
10:21 am 10:21 Mostly Cloudy 79 26.1 72 22.2 79 79 SSE 9 15 29.77 1008 10 16 N/A
10:52 am 10:52 Mostly Cloudy 82 27.8 73 22.8 74 74 S 12 19 29.75 1007 10 16 N/A
11:52 am 11:52 Mostly Cloudy 85 29.4 73 22.8 68 68 S 9 15 29.72 1006 10 16 N/A
12:52 pm 12:52 Mostly Cloudy 86 30 74 23.3 67 67 S 12 19 29.71 1006 10 16 N/A
1:52 pm 13:52 Partly Cloudy 88 31.1 73 22.8 61 61 S 10 17 29.69 1005 10 16 N/A
2:52 pm 14:52 Partly Cloudy 88 31.1 75 23.9 66 66 S 14 22 29.67 1005 10 16 N/A
3:52 pm 15:52 Mostly Cloudy 90 32.2 74 23.3 59 59 S 15 24 29.66 1004 10 16 N/A
4:52 pm 16:52 Partly Cloudy 89 31.7 72 22.2 57 57 S 15 24 29.61 1003 10 16 N/A
5:52 pm 17:52 Mostly Cloudy 86 30 74 23.3 67 67 S 9 15 29.63 1003 10 16 N/A
6:10 pm 18:10 Mostly Cloudy with Thunderstorms 86 30 74 23.3 67 67 S 7 11 29.65 1004 10 16 N/A
6:34 pm 18:34 Mostly Cloudy 81 27.2 67 19.4 62 62 NW 14 22 29.65 1004 10 16 N/A
6:40 pm 18:40 Mostly Cloudy with Nearby Thunderstorms 81 27.2 67 19.4 62 62 NW 12 19 29.65 1004 10 16 N/A
6:52 pm 18:52 Mostly Cloudy with Nearby Thunderstorms 81 27.2 67 19.4 62 62 NW 6 9 29.65 1004 10 16 N/A
6:55 pm 18:55 Mostly Cloudy 81 27.2 67 19.4 62 62 NNE 8 13 29.66 1004 10 16 N/A
7:52 pm 19:52 Mostly Cloudy 80 26.7 68 20 67 67 N N/A 29.65 1004 10 16 N/A
8:52 pm 20:52 Mostly Cloudy 80 26.7 71 21.7 74 74 E 3 6 29.67 1005 10 16 N/A
9:52 pm 21:52 Mostly Cloudy 79 26.1 71 21.7 77 77 NE 7 11 29.68 1005 10 16 N/A
10:22 pm 22:22 Mostly Cloudy with Nearby Thunderstorms 79 26.1 70 21.1 74 74 N 6 9 29.70 1006 10 16 N/A
10:37 pm 22:37 Cloudy with Thunderstorms 77 25 69 20.6 77 77 NNW 17 28 29.73 1007 6 10 0.05 1.27
10:52 pm 22:52 Cloudy with Thunderstorms 76 24.4 69 20.6 79 79 N 10 17 29.72 1007 10 16 0.05 1.27
11:17 pm 23:17 Cloudy 75 23.9 69 20.6 82 82 N 5 7 29.71 1006 10 16 N/A
11:52 pm 23:52 Cloudy 76 24.4 68 20 77 77 NNW 5 7 29.70 1006 10 16 N/A

Powered by AerisWeather